Flag for Germany Weather past 2 weeks in Görlitz, Saxony, Germany

Now
71 °F

Overcast.


Feels Like: 75 °F
Forecast: 57 / 85 °F
Wind: 3 mph from Southwest

Location: Goerlitz

Current Time: Jul 25, 2014 at 4:01:41 PM

Latest Report: Jul 25, 2014 at 3:00 PM


Visibility: 25 mi

Pressure: 29.92 "Hg

Humidity: 66%

Dew point: 60 °F

Location of GörlitzLocation

Historic Weather in Görlitz — Graph

°F

Görlitz temperature yesterday

Maximum temperature yesterday: 64 °F (at 2:00 PM)
Minimum temperature yesterday: 55 °F (at 4:00 AM)
Average temperature yesterday: 60 °F

Past Weeks' High & Low Weather Summary

 TemperatureHumidityPressure
High91 °F (Jul 20, 6:00 PM)98% (Jul 18, 5:00 AM)30.16 "Hg (Jul 18, 5:00 AM)
Low53 °F (Jul 13, 2:00 AM)24% (Jul 23, 5:00 PM)29.75 "Hg (Jul 21, 7:00 AM)
Average68 °F74%29.94 "Hg
* Reported Jul 10 2:00 PM — Jul 25 2:00 PM, Görlitz, Weather by CustomWeather, © 2014

Note: Actual official high and low records may vary slightly from our data, if they occured in-between our weather recording intervals... More about our weather records

Advertising

Görlitz weather history for previous 24 hours

 ConditionsComfort  
Time TempWeatherWind HumidityBarometerVisibility
2:00 PM
Jul 25
71 °FOvercast.3 mph69%29.92 "Hg22 mi
1:00 PM71 °FOvercast.3 mph72%29.93 "Hg14 mi
12:00 PM70 °FOvercast.2 mph75%29.93 "Hg14 mi
11:00 AM69 °FOvercast.3 mph82%29.93 "Hg14 mi
10:00 AM66 °FOvercast.1 mph82%29.93 "Hg11 mi
9:00 AM64 °FLow clouds.1 mph89%29.93 "Hg7 mi
8:00 AM63 °FFog.2 mph94%29.93 "Hg4 mi
7:00 AM62 °FFog.2 mph96%29.92 "Hg4 mi
6:00 AM62 °FLow clouds.1 mph96%29.92 "Hg4 mi
5:00 AM62 °FFog.3 mph96%29.92 "Hg4 mi
4:00 AM62 °FFog.3 mph96%29.91 "Hg3 mi
3:00 AM62 °FFog.3 mph98%29.90 "Hg3 mi
2:00 AM62 °FLow clouds.3 mph97%29.91 "Hg2 mi
1:00 AM62 °FLow clouds.3 mph98%29.92 "Hg2 mi
12:00 AM62 °FLow clouds.6 mph98%29.92 "Hg2 mi
11:00 PM
Jul 24
62 °FRain. Low clouds.6 mph97%29.92 "Hg2 mi
10:00 PM62 °FRain. Low clouds.6 mph97%29.91 "Hg2 mi
9:00 PM62 °FRain. Low clouds.5 mph97%29.90 "Hg2 mi
8:00 PM62 °FRain. Low clouds.5 mph97%29.90 "Hg2 mi
7:00 PM61 °FLight rain. Low clouds.3 mph97%29.90 "Hg2 mi
6:00 PM61 °FRain. Low clouds.3 mph96%29.91 "Hg2 mi
5:00 PM61 °FRain. Low clouds.5 mph96%29.93 "Hg6 mi
4:00 PM62 °FRain. Low clouds.7 mph96%29.93 "Hg2 mi
Weather by CustomWeather, © 2014

See weather overviewHow to use our weather pages